[[{"header":{"parameterUnit":"m.s-1","parameterCategory":1,"la1":30.2991,"la2":30.254,"lo1":-89.0895,"lo2":-89.0444,"dy":0.0017,"dx":0.0017,"nx":28,"ny":28,"refTime":"2025-08-17T21:00:00:Z","depth":0,"parameterNumber":2,"parameterNumberName":"U-component_of_WINDS"},"data":[0,0,0,0,0,0,0,0,0,0,0,0,0,0,0,0,0,0,0,0,0,0,0,0,0,0,0,0,0,0,0,0,0,0,0,0,0,0,0,0,0,0,0,0,0,0,0,0,0,0,0,0,0,0,0,0,0,0,1.7462,1.7464,0,1.7623,1.7625,1.7627,1.7632,1.763,1.7628,1.7627,1.7796,1.7802,1.7808,0,0,0,0,0,0,0,0,0,0,0,0,0,1.7161,1.7167,1.7462,1.7464,1.7466,1.7623,1.7625,1.7627,1.7633,1.763,1.7628,1.7626,1.7793,1.7801,1.7808,0,0,0,0,0,0,0,0,0,0,0,0,0,1.7304,1.7169,1.7462,1.7488,1.7492,1.7622,1.7625,1.7628,1.7633,1.763,1.7627,1.7625,1.7791,1.78,1.781,1.7927,0,0,1.7838,1.7843,0,0,0,0,0,0,0,0,1.7296,1.7315,1.7482,1.7486,1.7491,1.7605,1.7581,1.7728,1.7634,1.758,1.7627,1.7623,1.7735,1.7749,1.7785,1.7935,1.7942,1.7839,1.7845,1.7849,1.7852,0,0,0,0,0,0,0,1.7286,1.7308,1.7526,1.7484,1.749,1.7492,1.7509,1.7609,1.7672,1.7584,1.7585,1.7604,1.7737,1.7776,1.7789,1.7944,1.7839,1.7847,1.7853,1.7857,1.8194,1.8198,0,0,0,0,0,0,1.7271,1.73,1.7521,1.7531,1.7384,1.75,1.7519,1.7571,1.7671,1.7683,1.7606,1.7603,1.7761,1.7778,1.7795,1.7936,1.7849,1.7858,1.7863,1.8191,1.8195,1.8199,0,0,0,0,0,0,1.7264,1.729,1.7514,1.7416,1.7444,1.7508,1.7567,1.7576,1.7615,1.7687,1.7699,1.7635,1.776,1.7782,1.7893,1.7942,1.7862,1.7871,1.8187,1.8192,1.8197,1.822,0,0,0,0,0,0,1.7256,1.7288,1.7333,1.7417,1.7449,1.7609,1.757,1.7581,1.7631,1.7629,1.7717,1.7729,1.7759,1.7879,1.7902,1.7954,1.7878,1.8183,1.819,1.8195,1.8215,1.8225,1.8234,0,0,0,0,0,1.7245,1.7335,1.7335,1.7362,1.7507,1.7611,1.763,1.7662,1.7635,1.7681,1.7726,1.7726,1.7933,1.789,1.7917,1.7972,1.818,1.8188,1.8195,1.8211,1.8223,1.8234,0,0,0,0,0,0,1.7257,1.7346,1.7348,1.7467,1.7531,1.7612,1.767,1.7675,1.7749,1.7744,1.7782,1.7802,1.7911,1.7953,1.7903,1.8089,1.8054,1.8067,1.8057,1.8069,1.8078,1.8065,1.7886,0,0,0,0,0,1.7273,1.735,1.7424,1.7522,1.7554,1.7607,1.7654,1.7672,1.7741,1.7769,1.7823,1.7891,1.797,1.8023,1.8101,1.8222,1.824,1.8273,1.8282,1.829,1.83,1.8364,1.8379,1.8223,1.8223,1.8223,0,0,1.7308,1.7366,1.7413,1.7526,1.7578,1.7657,1.763,1.7715,1.7773,1.7783,1.7889,1.7931,1.8009,1.8125,1.8178,1.8163,1.8347,1.8299,1.8304,1.8311,1.8373,1.8388,1.8401,1.8228,1.8227,1.8226,0,0,1.7411,1.7464,1.7549,1.7601,1.768,1.7714,1.7734,1.7815,1.7842,1.7949,1.7957,1.8028,1.8166,1.8219,1.8265,1.8386,1.8388,1.8411,1.8459,1.8521,1.8533,1.8544,1.8585,1.8599,1.8421,1.8421,1.8422,0,1.7444,1.7562,1.7594,1.7677,1.7726,1.7736,1.7823,1.7873,1.7973,1.8007,1.7988,1.8158,1.8212,1.8339,1.8368,1.8406,1.8429,1.84,1.8529,1.854,1.8551,1.859,1.8606,1.8424,1.8423,1.8423,1.8423,0,1.7598,1.768,1.774,1.7834,1.789,1.7975,1.8019,1.8072,1.8086,1.8122,1.823,1.8294,1.8384,1.8416,1.8432,1.8545,1.8532,1.8521,1.8486,1.8567,1.8604,1.862,1.8426,1.8426,1.8425,1.8425,0,0,1.7713,1.7821,1.7843,1.7884,1.7971,1.8034,1.812,1.8206,1.8249,1.8318,1.839,1.8505,1.8494,1.8546,1.8567,1.8622,1.871,1.8604,1.8606,1.8619,1.8836,1.8842,1.8859,1.8713,1.8716,1.8718,1.8828,0,1.7823,1.7973,1.8002,1.8133,1.8207,1.8217,1.8291,1.8352,1.8388,1.8456,1.8497,1.8576,1.8558,1.8588,1.8643,1.8688,1.8754,1.8681,1.8778,1.8782,1.8756,1.8879,1.8886,1.8987,1.8843,1.8846,1.8848,0,1.7971,1.804,1.8177,1.8251,1.8284,1.8349,1.8429,1.8495,1.8564,1.8586,1.8643,1.8657,1.8746,1.8708,1.883,1.8779,1.8821,1.8849,1.8854,1.8862,1.8818,1.8888,1.902,1.9034,1.8872,1.887,1.8868,0,1.8037,1.8165,1.8263,1.8299,1.8388,1.8434,1.8473,1.854,1.8588,1.8659,1.869,1.8771,1.8814,1.8876,1.8912,1.8882,1.903,1.8996,1.905,1.9049,1.9079,1.9076,1.9217,1.9111,1.911,1.911,1.911,0,1.8155,1.8237,1.8293,1.8353,1.8445,1.8479,1.857,1.861,1.8668,1.8735,1.8751,1.8814,1.8858,1.8928,1.8957,1.9052,1.9072,1.9092,1.9098,1.9089,1.9086,1.9116,1.9108,1.9114,1.9113,1.9112,1.9112,0,1.8243,1.8284,1.8391,1.8466,1.8487,1.8551,1.8616,1.8674,1.871,1.8795,1.8817,1.8873,1.8955,1.8997,1.9101,1.912,1.9226,1.923,1.9202,1.9204,1.9254,1.9248,1.9417,1.944,1.932,1.9321,1.9322,0,1.8314,1.8378,1.8459,1.8504,1.8544,1.8618,1.8667,1.8703,1.8754,1.8836,1.8884,1.8966,1.9034,1.9165,1.9215,1.9294,1.9298,1.9352,1.931,1.9298,1.9295,1.929,1.9295,1.9358,1.9359,1.936,1.9361,0,1.8436,1.8452,1.8522,1.8598,1.8655,1.8718,1.8779,1.8816,1.8862,1.8918,1.9001,1.9053,1.9157,1.9238,1.932,1.9362,1.9369,1.9374,1.939,1.938,1.936,1.9369,1.9219,1.937,1.9369,1.9368,1.9368,1.9367,1.8516,1.8571,1.8636,1.8713,1.8762,1.8819,1.8876,1.8918,1.8987,1.9073,1.9091,1.9178,1.9245,1.9355,1.9399,1.9467,1.9456,1.948,1.9486,1.9491,1.9491,1.9351,1.9483,1.9483,1.9483,1.9483,1.9482,0,1.8635,1.8677,1.8747,1.8831,1.8891,1.8891,1.8959,1.9009,1.9085,1.9145,1.9211,1.9305,1.9384,1.9439,1.9519,1.9563,1.9568,1.9583,1.9579,1.9588,1.9498,1.9475,1.9577,1.9577,1.9577,1.9577,1.9577,1.9577,1.8704,1.8796,1.882,1.8938,1.898,1.9064,1.9102,1.9154,1.9202,1.9306,1.937,1.9406,1.9464,1.9548,1.9619,1.9634,1.9661,1.9675,1.9689,1.9605,1.9594,1.9585,1.9563,1.9682,1.9682,1.9773,1.9773,1.9774]},{"header":{"parameterUnit":"m.s-1","parameterCategory":1,"la1":30.2991,"la2":30.254,"lo1":-89.0895,"lo2":-89.0444,"dy":0.0017,"dx":0.0017,"nx":28,"ny":28,"refTime":"2025-08-17T21:00:00:Z","depth":0,"parameterNumber":3,"parameterNumberName":"V-component_of_WINDS"},"data":[0,0,0,0,0,0,0,0,0,0,0,0,0,0,0,0,0,0,0,0,0,0,0,0,0,0,0,0,0,0,0,0,0,0,0,0,0,0,0,0,0,0,0,0,0,0,0,0,0,0,0,0,0,0,0,0,0,0,2.8253,2.8252,0,2.8205,2.8205,2.8204,2.8136,2.8135,2.8133,2.8132,2.8082,2.8082,2.8081,0,0,0,0,0,0,0,0,0,0,0,0,0,2.8281,2.8281,2.8253,2.8252,2.8252,2.8205,2.8205,2.8204,2.8136,2.8135,2.8133,2.8132,2.8082,2.8082,2.8081,0,0,0,0,0,0,0,0,0,0,0,0,0,2.8255,2.8281,2.8253,2.8212,2.8208,2.8205,2.8205,2.8204,2.8136,2.8135,2.8133,2.8131,2.8082,2.8082,2.8081,2.8114,0,0,2.808,2.808,0,0,0,0,0,0,0,0,2.8256,2.8254,2.8219,2.8215,2.821,2.8175,2.8196,2.8174,2.8137,2.8163,2.8132,2.813,2.8114,2.8111,2.8106,2.8112,2.811,2.808,2.808,2.808,2.808,0,0,0,0,0,0,0,2.8258,2.8255,2.8234,2.8218,2.8213,2.8195,2.8189,2.8191,2.8149,2.8161,2.8156,2.8151,2.8111,2.8106,2.8104,2.8109,2.808,2.808,2.808,2.808,2.8135,2.8137,0,0,0,0,0,0,2.8266,2.8257,2.8235,2.8232,2.8229,2.8196,2.819,2.8188,2.8149,2.8141,2.8153,2.8148,2.8108,2.8105,2.8102,2.8135,2.808,2.808,2.8079,2.8133,2.8135,2.8137,0,0,0,0,0,0,2.8267,2.8265,2.8237,2.8243,2.8238,2.8197,2.8196,2.8188,2.8183,2.8143,2.8135,2.8156,2.8106,2.8103,2.8111,2.8132,2.8079,2.8079,2.8131,2.8134,2.8136,2.8202,0,0,0,0,0,0,2.8268,2.8266,2.8279,2.8244,2.8238,2.8248,2.8197,2.8188,2.8182,2.8176,2.8143,2.8136,2.8105,2.8112,2.8111,2.8131,2.8079,2.8129,2.8133,2.8136,2.8198,2.8207,2.8214,0,0,0,0,0,2.827,2.83,2.828,2.8278,2.8254,2.825,2.8246,2.821,2.8185,2.8196,2.817,2.8137,2.8131,2.8113,2.8111,2.8132,2.8128,2.8132,2.8135,2.8194,2.8205,2.8214,0,0,0,0,0,0,2.8338,2.8295,2.8272,2.8293,2.8275,2.8238,2.8252,2.8223,2.8212,2.8207,2.8161,2.8155,2.8168,2.8151,2.8132,2.8159,2.8124,2.8127,2.8169,2.8179,2.8187,2.819,2.8078,0,0,0,0,0,2.8356,2.8357,2.8319,2.834,2.8333,2.8294,2.8291,2.8264,2.8244,2.8236,2.8211,2.8192,2.8185,2.8182,2.8174,2.8196,2.8186,2.8209,2.8217,2.8224,2.8226,2.8233,2.8241,2.815,2.815,2.815,0,0,2.8392,2.8368,2.8372,2.8353,2.8337,2.8337,2.8288,2.8292,2.829,2.8237,2.8242,2.8223,2.8198,2.8213,2.8218,2.8199,2.825,2.8229,2.8234,2.8233,2.8237,2.8246,2.8254,2.8152,2.8152,2.8152,0,0,2.8457,2.8441,2.8455,2.844,2.8415,2.8389,2.8392,2.8359,2.8344,2.8349,2.8307,2.8305,2.8296,2.8278,2.8269,2.8325,2.8293,2.8324,2.8365,2.8372,2.8379,2.8385,2.8402,2.8409,2.8327,2.8327,2.8327,0,2.8505,2.8505,2.8466,2.8471,2.8462,2.8414,2.8426,2.8413,2.8387,2.8381,2.8361,2.8345,2.8326,2.8333,2.8347,2.8342,2.8342,2.8326,2.8382,2.8387,2.8392,2.8407,2.8414,2.8331,2.8331,2.833,2.833,0,2.8562,2.8563,2.8577,2.8552,2.8546,2.8555,2.8516,2.8514,2.8487,2.8463,2.8466,2.8441,2.8425,2.8425,2.84,2.8428,2.8417,2.839,2.8353,2.8405,2.8418,2.8424,2.8336,2.8335,2.8334,2.8333,0,0,2.8669,2.8622,2.8628,2.8614,2.8583,2.8581,2.8587,2.8571,2.8569,2.8552,2.8553,2.8545,2.8519,2.8508,2.848,2.8486,2.8527,2.8457,2.8456,2.8468,2.8552,2.8571,2.8578,2.8507,2.8508,2.8509,2.8553,0,2.8725,2.8733,2.8697,2.8713,2.871,2.8664,2.8668,2.8648,2.8625,2.8618,2.8592,2.8585,2.8553,2.8545,2.855,2.8522,2.8543,2.8518,2.8504,2.8504,2.8509,2.8586,2.8606,2.8649,2.8559,2.8559,2.856,0,2.8792,2.8778,2.8794,2.8758,2.8756,2.8761,2.8741,2.8737,2.8712,2.8695,2.8681,2.8649,2.8649,2.8616,2.8613,2.8597,2.8589,2.8575,2.8575,2.857,2.8534,2.858,2.8663,2.8668,2.8569,2.8568,2.8567,0,2.8864,2.8849,2.8855,2.8846,2.8806,2.881,2.8793,2.8767,2.8759,2.8742,2.8736,2.872,2.871,2.8697,2.866,2.864,2.8661,2.8625,2.8643,2.8644,2.8648,2.8648,2.8728,2.8648,2.8648,2.8648,2.8648,0,2.8929,2.8939,2.8887,2.889,2.8899,2.8858,2.8868,2.8846,2.8823,2.882,2.8779,2.8777,2.8729,2.8721,2.8692,2.8692,2.8689,2.8673,2.8664,2.8675,2.8676,2.8667,2.8662,2.865,2.865,2.8649,2.8649,0,2.9009,2.8975,2.8978,2.894,2.893,2.8938,2.8904,2.8905,2.8879,2.8875,2.8872,2.8831,2.8818,2.8781,2.8759,2.8739,2.8747,2.8734,2.8755,2.8749,2.8768,2.8766,2.8843,2.8849,2.8769,2.877,2.8771,0,2.9051,2.9058,2.902,2.9015,2.9,2.8993,2.8984,2.8944,2.8936,2.8907,2.891,2.8894,2.888,2.8862,2.8828,2.8811,2.8794,2.8822,2.8791,2.88,2.879,2.8789,2.8788,2.8828,2.883,2.883,2.8831,0,2.9128,2.9111,2.91,2.9083,2.9073,2.9058,2.904,2.9038,2.8992,2.8984,2.8971,2.896,2.8937,2.8921,2.8898,2.8878,2.8846,2.8841,2.8844,2.8853,2.8864,2.8855,2.877,2.8839,2.8839,2.8838,2.8838,2.8837,2.9188,2.9191,2.9164,2.9152,2.9134,2.9118,2.9115,2.9089,2.9077,2.9056,2.9032,2.9021,2.8993,2.8958,2.8941,2.893,2.8913,2.8918,2.8919,2.892,2.8923,2.8868,2.8926,2.8926,2.8926,2.8925,2.8925,0,2.926,2.924,2.923,2.9206,2.9196,2.9168,2.9146,2.9139,2.913,2.9107,2.9093,2.9076,2.906,2.9025,2.9005,2.9003,2.8987,2.8998,2.8996,2.8992,2.8941,2.8939,2.9011,2.9011,2.9011,2.9011,2.9011,2.9011,2.9296,2.9297,2.9276,2.9267,2.9247,2.9236,2.9225,2.9209,2.919,2.9173,2.916,2.9137,2.9109,2.9086,2.9068,2.9058,2.9051,2.9066,2.9051,2.9004,2.8996,2.8988,2.8986,2.9066,2.9066,2.9102,2.9103,2.9103]}]]